DW3528 Weather Reports


time (UTC)temp
F
wind
direction
speed
knots
gust
knots
rain 1hr
in
rain 24hr
in
rain mn
in
humidity
%
barometer
mb
20260503190350 61 46 0.0 0.0 0.00 0.00 0.00 92 1015.8
20260503185844 61 46 0.0 0.0 0.00 0.00 0.00 92 1015.8
20260503185831 61 46 0.0 0.0 0.00 0.00 0.00 92 1015.8
20260503184832 61 46 0.0 0.0 0.00 0.00 0.00 92 1015.8
20260503184333 61 46 0.0 0.0 0.00 0.00 0.00 92 1015.8
20260503183833 61 46 0.0 0.0 0.00 0.00 0.00 92 1015.8
20260503183331 61 46 0.0 0.0 0.00 0.00 0.00 92 1015.8
20260503182831 61 46 0.0 0.0 0.00 0.00 0.00 92 1015.8
20260503182333 61 46 0.0 0.0 0.00 0.00 0.00 92 1015.8
20260503181832 61 46 0.0 0.0 0.00 0.00 0.00 92 1015.8
20260503181819 61 46 0.0 0.0 0.00 0.00 0.00 92 1015.7
20260503180831 61 46 0.0 0.0 0.00 0.00 0.00 92 1015.8
20260503180333 61 46 0.0 0.0 0.00 0.00 0.00 91 1015.8
20260503175830 61 46 0.0 0.0 0.00 0.00 0.00 91 1015.8
20260503175329 61 46 0.0 0.0 0.00 0.00 0.00 91 1015.7
20260503174826 61 46 0.0 0.0 0.00 0.00 0.00 91 1015.7
20260503174322 61 46 0.0 0.0 0.00 0.00 0.00 91 1015.7
20260503173823 60 46 0.0 0.0 0.00 0.00 0.00 91 1015.7
20260503173321 60 46 0.0 0.0 0.00 0.00 0.00 91 1015.7
20260503172821 60 46 0.0 0.0 0.00 0.00 0.00 91 1015.7
20260503172320 60 46 0.0 0.0 0.00 0.00 0.00 91 1015.8
20260503171821 60 46 0.0 0.0 0.00 0.00 0.00 91 1015.8
20260503171320 60 46 0.0 0.0 0.00 0.00 0.00 91 1015.9
20260503170820 60 46 0.0 0.0 0.00 0.00 0.00 91 1015.9
20260503170317 60 46 0.0 0.0 0.00 0.00 0.00 91 1016.0
20260503150801 61 46 0.0 0.0 0.00 0.00 0.00 89 1016.9
20260503150300 61 46 0.0 0.0 0.00 0.00 0.00 89 1016.9
20260503140303 62 46 0.0 0.0 0.00 0.00 0.00 87 1017.5
20260503131246 62 46 0.0 0.0 0.00 0.00 0.00 86 1018.0
20260503130746 62 46 0.0 0.0 0.00 0.00 0.00 86 1018.0
20260503130517 62 46 0.0 0.0 0.00 0.00 0.00 86 1018.0
20260503110718 65 46 0.0 0.0 0.00 0.00 0.00 83 1018.4
20260503110218 65 46 0.0 0.0 0.00 0.00 0.00 83 1018.4
20260503100202 68 46 0.0 0.0 0.00 0.00 0.00 80 1018.1
20260503090153 71 46 0.0 0.0 0.00 0.00 0.00 77 1018.0
20260503081417 72 46 0.0 0.0 0.00 0.00 0.00 74 1017.8
20260503080651 73 46 0.0 0.0 0.00 0.00 0.00 73 1017.8
20260503080419 73 46 0.0 0.0 0.00 0.00 0.00 73 1017.8
20260503072651 74 46 0.0 0.0 0.00 0.00 0.00 71 1017.5
20260503072148 74 46 0.0 0.0 0.00 0.00 0.00 70 1017.5
20260503071648 75 46 0.0 0.0 0.00 0.00 0.00 69 1017.5
20260503071148 75 46 0.0 0.0 0.00 0.00 0.00 69 1017.4
20260503070647 76 46 0.0 0.0 0.00 0.00 0.00 68 1017.4
20260503070149 76 46 0.0 0.0 0.00 0.00 0.00 67 1017.4
20260503060142 79 35 2.6 12.2 0.00 0.00 0.00 54 1017.5
20260503054903 80 35 0.9 13.0 0.00 0.00 0.00 53 1017.6
20260503054141 79 35 0.0 0.0 0.00 0.00 0.00 52 1017.6
20260503053907 79 35 0.0 0.0 0.00 0.00 0.00 53 1017.6
20260503053143 79 35 0.9 6.1 0.00 0.00 0.00 54 1017.6
20260503052644 79 35 2.6 11.3 0.00 0.00 0.00 54 1017.6
20260503052141 79 35 2.6 11.3 0.00 0.00 0.00 53 1017.7
20260503051643 79 35 2.6 9.6 0.00 0.00 0.00 54 1017.7
20260503051143 79 35 3.5 13.0 0.00 0.00 0.00 54 1017.9
20260503050903 78 35 3.5 13.0 0.00 0.00 0.00 55 1017.8
20260503050136 78 37 0.0 0.0 0.00 0.00 0.00 56 1017.8
20260503045628 78 37 0.0 0.9 0.00 0.00 0.00 56 1017.9
20260503045122 78 37 0.0 0.9 0.00 0.00 0.00 56 1018.0
20260503044836 78 37 1.7 11.3 0.00 0.00 0.00 56 1018.0
20260503044110 78 37 1.7 13.0 0.00 0.00 0.00 56 1018.1
20260503043606 78 37 0.0 13.0 0.00 0.00 0.00 57 1018.2
20260503043553 78 36 0.0 0.0 0.00 0.00 0.00 58 1018.2
20260503042553 78 36 0.0 0.0 0.00 0.00 0.00 58 1018.2
20260503042319 77 36 0.0 0.0 0.00 0.00 0.00 59 1018.2
20260503041553 77 36 0.0 0.0 0.00 0.00 0.00 59 1018.3
20260503041320 77 36 0.0 0.0 0.00 0.00 0.00 59 1018.4
20260503040813 77 36 0.0 9.6 0.00 0.00 0.00 59 1018.4
20260503040051 77 36 0.9 9.6 0.00 0.00 0.00 59 1018.4
20260503035551 77 36 0.0 8.7 0.00 0.00 0.00 59 1018.5
20260503035052 77 36 0.9 10.4 0.00 0.00 0.00 59 1018.6
20260503034549 77 36 2.6 10.4 0.00 0.00 0.00 58 1018.6
20260503034051 77 36 2.6 13.9 0.00 0.00 0.00 58 1018.7
20260503033551 77 36 3.5 13.9 0.00 0.00 0.00 59 1018.7
20260503033051 77 38 2.6 11.3 0.00 0.00 0.00 59 1018.8
20260503032550 77 38 2.6 14.8 0.00 0.00 0.00 58 1018.9
20260503032049 77 38 0.9 14.8 0.00 0.00 0.00 59 1018.9
20260503031551 77 39 0.9 11.3 0.00 0.00 0.00 60 1019.1
20260503031050 77 39 1.7 13.9 0.00 0.00 0.00 60 1019.2
20260503030544 77 39 1.7 13.9 0.00 0.00 0.00 59 1019.2
20260503030531 77 38 0.9 11.3 0.00 0.00 0.00 59 1019.4
20260503025539 77 38 1.7 14.8 0.00 0.00 0.00 59 1019.4
20260503025038 77 38 6.1 14.8 0.00 0.02 0.00 59 1019.6
20260503024538 77 40 5.2 16.5 0.00 0.03 0.00 59 1019.6
20260503024033 77 41 3.5 16.5 0.00 0.03 0.00 60 1019.7
20260503023531 77 39 4.3 16.5 0.00 0.03 0.00 60 1019.9
20260503023302 77 38 5.2 16.5 0.00 0.03 0.00 60 1019.9
20260503022759 77 48 5.2 16.5 0.00 0.03 0.00 60 1020.0
20260503022031 77 50 2.6 16.5 0.00 0.03 0.00 60 1020.0
20260503021759 77 54 1.7 13.9 0.00 0.03 0.00 60 1020.2
20260503021031 77 54 0.9 11.3 0.00 0.03 0.00 61 1020.4
20260503020748 76 54 1.7 16.5 0.00 0.03 0.00 61 1020.4
20260503020029 76 54 0.9 16.5 0.00 0.03 0.00 60 1020.6
20260503015529 76 52 0.0 1.7 0.00 0.03 0.00 62 1020.8
20260503015029 76 52 0.0 1.7 0.00 0.03 0.00 62 1020.9
20260503014529 76 52 0.0 1.7 0.00 0.03 0.00 62 1021.0
20260503014030 76 52 0.9 12.2 0.00 0.03 0.00 63 1021.1
20260503013529 75 52 3.5 14.8 0.00 0.03 0.00 63 1021.2
20260503013248 75 52 3.5 14.8 0.00 0.03 0.00 64 1021.2
20260503012518 75 56 3.5 14.8 0.00 0.03 0.00 64 1021.3
20260503012011 75 56 4.3 14.8 0.00 0.03 0.00 64 1021.4
20260503011504 74 59 1.7 13.9 0.00 0.03 0.00 65 1021.6
20260503010958 74 59 1.7 14.8 0.00 0.03 0.00 66 1021.7
20260503010452 74 58 1.7 14.8 0.00 0.03 0.00 66 1021.7
20260503005949 74 59 0.0 0.0 0.00 0.03 0.00 69 1021.7
20260503005441 73 59 0.0 1.7 0.00 0.03 0.00 71 1021.9
20260503004935 73 58 0.0 1.7 0.00 0.03 0.00 72 1022.0
20260503004910 73 59 0.0 1.7 0.00 0.03 0.00 73 1022.2
20260503003923 72 59 0.0 3.5 0.00 0.03 0.00 73 1022.1
20260503003419 72 58 0.0 7.0 0.00 0.03 0.00 74 1022.2
20260503002910 72 59 0.0 7.0 0.00 0.03 0.00 75 1022.3
20260503002404 71 58 0.0 0.0 0.00 0.03 0.00 77 1022.4
20260503001859 71 59 0.0 0.0 0.00 0.03 0.00 78 1022.3
20260503001353 71 59 0.0 0.0 0.00 0.03 0.00 80 1022.3
20260503000849 70 59 0.0 0.0 0.00 0.03 0.00 81 1022.4
20260503000348 70 58 0.0 0.0 0.00 0.03 0.00 83 1022.3
20260502235851 69 59 0.0 0.0 0.00 0.03 0.00 84 1022.3
20260502235350 69 59 0.0 0.0 0.00 0.03 0.00 87 1022.3
20260502234847 68 59 0.0 0.0 0.00 0.03 0.00 88 1022.3
20260502234609 68 59 0.0 0.0 0.00 0.03 0.00 90 1022.4
20260502233845 67 59 0.0 0.0 0.00 0.03 0.00 90 1022.4
20260502233343 67 59 0.0 0.0 0.00 0.03 0.00 92 1022.4
20260502233103 67 59 0.0 0.0 0.00 0.03 0.00 92 1022.4
20260502232342 66 59 0.0 0.0 0.00 0.03 0.00 93 1022.5
20260502231844 66 58 0.0 0.0 0.00 0.03 0.00 93 1022.6
20260502231342 65 59 0.0 0.0 0.00 0.03 0.00 93 1022.7
20260502230844 65 59 0.0 0.0 0.00 0.03 0.00 93 1022.7
20260502230833 65 59 0.0 0.0 0.00 0.03 0.00 93 1022.7
20260502225842 64 59 0.0 0.0 0.00 0.03 0.00 93 1022.7
20260502225612 64 58 0.0 0.0 0.00 0.03 0.00 93 1022.8
20260502224841 63 58 0.0 0.0 0.00 0.03 0.00 93 1022.9
20260502224343 63 59 0.0 0.0 0.00 0.03 0.00 93 1023.0
20260502223839 63 59 0.0 0.0 0.00 0.03 0.00 93 1023.0
20260502223331 62 59 0.0 0.0 0.00 0.03 0.00 93 1022.9
20260502222827 62 59 0.0 0.0 0.00 0.03 0.00 93 1023.0
20260502222318 61 58 0.0 0.0 0.00 0.03 0.00 93 1023.0
20260502222259 61 59 0.0 0.0 0.00 0.03 0.00 93 1022.9
20260502221308 61 59 0.0 0.0 0.00 0.03 0.00 92 1022.8
20260502220801 60 58 0.0 0.0 0.00 0.03 0.00 93 1022.8
20260502220254 60 58 0.0 0.0 0.00 0.03 0.00 92 1022.9
20260502215749 60 59 0.0 0.0 0.00 0.03 0.00 93 1022.8
20260502215243 60 59 0.0 0.0 0.00 0.03 0.00 92 1022.7
20260502214742 59 58 0.0 0.0 0.00 0.03 0.00 92 1022.6
20260502214231 59 58 0.0 0.0 0.00 0.03 0.00 92 1022.5
20260502213947 59 59 0.0 0.0 0.00 0.03 0.00 92 1022.5
20260502213218 59 59 0.0 0.0 0.00 0.03 0.00 92 1022.5
20260502212712 59 59 0.0 0.0 0.00 0.03 0.00 92 1022.3
20260502212209 58 58 0.0 0.0 0.00 0.03 0.00 92 1022.2
20260502211933 58 58 0.0 0.0 0.00 0.03 0.00 92 1022.1
20260502211155 58 59 0.0 0.0 0.00 0.03 0.00 92 1022.1
20260502210649 58 58 0.0 0.0 0.00 0.03 0.00 92 1022.2
20260502210142 58 59 0.0 0.0 0.00 0.03 0.00 92 1022.2
20260502205638 58 58 0.0 0.0 0.00 0.03 0.00 92 1022.2
20260502205131 58 58 0.0 0.0 0.00 0.03 0.00 91 1022.2
20260502204843 58 59 0.0 0.0 0.00 0.03 0.00 91 1022.2
20260502204351 58 59 0.0 0.0 0.00 0.03 0.00 91 1022.1
20260502203613 58 58 0.0 0.0 0.00 0.03 0.00 91 1022.1
20260502203109 58 59 0.0 0.0 0.00 0.03 0.00 91 1022.0
20260502202601 58 59 0.0 0.0 0.00 0.03 0.00 91 1022.0
20260502202055 59 58 0.0 0.0 0.00 0.03 0.00 91 1022.1
20260502201549 59 59 0.0 0.0 0.00 0.03 0.00 91 1022.1
20260502201042 59 59 0.0 0.0 0.00 0.03 0.00 91 1022.2
20260502200802 59 58 0.0 0.0 0.00 0.03 0.00 91 1022.1
20260502200031 59 59 0.0 0.0 0.00 0.03 0.00 91 1022.2
20260502195525 59 58 0.0 0.0 0.00 0.03 0.00 91 1022.3
20260502195019 59 58 0.0 0.0 0.00 0.03 0.00 91 1022.2
20260502194512 59 58 0.0 0.0 0.00 0.03 0.00 91 1022.1
20260502194009 59 58 0.0 0.0 0.00 0.03 0.00 91 1022.0
20260502193501 59 58 0.0 0.0 0.00 0.03 0.00 91 1022.0
20260502192955 59 59 0.0 0.0 0.00 0.03 0.00 91 1022.0
20260502192449 59 59 0.0 0.0 0.00 0.03 0.00 91 1022.0
20260502191943 59 58 0.0 0.0 0.00 0.03 0.00 91 1022.0
20260502191701 59 59 0.0 0.0 0.00 0.03 0.00 91 1021.9
20260502190930 59 59 0.0 0.0 0.00 0.03 0.00 91 1021.8
20260502190425 59 58 0.0 0.0 0.00 0.03 0.00 91 1022.0